Time,TemperatureF,DewpointF,PressureIn,WindDirection,WindDirectionDegrees,WindSpeedMPH,WindSpeedGustMPH,Humidity,HourlyPrecipIn,Conditions,Clouds,dailyrainin,SoftwareType,DateUTC
2013-01-22 00:14:00,3.0,0.0,29.85,South,177,0.0,2.0,86,0.00,,,0.00,weatherlink.com 1.10,2013-01-22 05:14:00,
2013-01-22 00:30:00,1.2,-2.0,29.84,South,177,0.0,1.0,85,0.00,,,0.00,weatherlink.com 1.10,2013-01-22 05:30:00,
2013-01-22 00:45:00,1.0,-2.0,29.83,East,95,1.0,3.0,87,0.00,,,0.00,weatherlink.com 1.10,2013-01-22 05:45:00,
2013-01-22 01:00:00,0.9,-2.0,29.83,NNE,15,0.0,3.0,87,0.00,,,0.00,weatherlink.com 1.10,2013-01-22 06:00:00,
2013-01-22 01:15:00,1.1,-2.0,29.83,North,5,0.0,2.0,87,0.00,,,0.00,weatherlink.com 1.10,2013-01-22 06:15:00,
2013-01-22 01:30:00,0.8,-2.0,29.83,North,5,0.0,2.0,87,0.00,,,0.00,weatherlink.com 1.10,2013-01-22 06:30:00,
2013-01-22 01:45:00,1.0,-2.0,29.83,North,5,0.0,0.0,86,0.00,,,0.00,weatherlink.com 1.10,2013-01-22 06:45:00,
2013-01-22 02:00:00,1.4,-2.0,29.84,NNE,31,0.0,3.0,86,0.00,,,0.00,weatherlink.com 1.10,2013-01-22 07:00:00,
2013-01-22 02:16:00,2.6,-1.0,29.84,NNE,31,0.0,1.0,86,0.00,,,0.00,weatherlink.com 1.10,2013-01-22 07:16:00,
2013-01-22 02:31:00,2.7,-1.0,29.84,NNE,31,0.0,2.0,86,0.00,,,0.00,weatherlink.com 1.10,2013-01-22 07:31:00,
2013-01-22 02:46:00,2.3,-1.0,29.84,NNE,31,0.0,1.0,86,0.00,,,0.00,weatherlink.com 1.10,2013-01-22 07:46:00,
2013-01-22 03:01:00,2.7,-1.0,29.83,NNE,31,0.0,1.0,86,0.00,,,0.00,weatherlink.com 1.10,2013-01-22 08:01:00,
2013-01-22 03:16:00,2.9,0.0,29.83,NNE,31,0.0,0.0,86,0.00,,,0.00,weatherlink.com 1.10,2013-01-22 08:16:00,
2013-01-22 03:31:00,2.9,0.0,29.82,NNE,31,0.0,0.0,86,0.00,,,0.00,weatherlink.com 1.10,2013-01-22 08:31:00,
2013-01-22 03:46:00,2.8,0.0,29.81,NNE,31,1.0,1.0,86,0.00,,,0.00,weatherlink.com 1.10,2013-01-22 08:46:00,
2013-01-22 04:02:00,3.1,0.0,29.81,SSE,160,1.0,2.0,87,0.00,,,0.00,weatherlink.com 1.10,2013-01-22 09:02:00,
2013-01-22 04:17:00,3.4,0.0,29.80,SSE,167,0.0,3.0,87,0.00,,,0.00,weatherlink.com 1.10,2013-01-22 09:17:00,
2013-01-22 04:32:00,3.6,1.0,29.81,SSE,167,0.0,1.0,87,0.00,,,0.00,weatherlink.com 1.10,2013-01-22 09:32:00,
2013-01-22 04:47:00,3.9,1.0,29.81,SSW,194,0.0,3.0,88,0.00,,,0.00,weatherlink.com 1.10,2013-01-22 09:47:00,
2013-01-22 05:02:00,4.4,2.0,29.80,South,176,0.0,3.0,88,0.00,,,0.00,weatherlink.com 1.10,2013-01-22 10:02:00,
2013-01-22 05:17:00,4.7,2.0,29.81,South,188,0.0,2.0,88,0.00,,,0.00,weatherlink.com 1.10,2013-01-22 10:17:00,
2013-01-22 05:32:00,5.1,2.0,29.81,SSW,194,1.0,2.0,88,0.00,,,0.00,weatherlink.com 1.10,2013-01-22 10:32:00,
2013-01-22 05:47:00,5.3,2.0,29.82,SSW,205,0.0,2.0,87,0.00,,,0.00,weatherlink.com 1.10,2013-01-22 10:47:00,
2013-01-22 06:03:00,4.8,1.0,29.82,North,9,0.0,3.0,85,0.00,,,0.00,weatherlink.com 1.10,2013-01-22 11:03:00,
2013-01-22 06:18:00,4.1,1.0,29.82,North,350,0.0,3.0,85,0.00,,,0.00,weatherlink.com 1.10,2013-01-22 11:18:00,
2013-01-22 06:33:00,3.8,0.0,29.82,NNW,346,0.0,1.0,85,0.00,,,0.00,weatherlink.com 1.10,2013-01-22 11:33:00,
2013-01-22 06:48:00,3.7,0.0,29.82,WNW,288,0.0,1.0,85,0.00,,,0.00,weatherlink.com 1.10,2013-01-22 11:48:00,
2013-01-22 07:03:00,3.5,0.0,29.82,WNW,288,0.0,0.0,85,0.00,,,0.00,weatherlink.com 1.10,2013-01-22 12:03:00,
2013-01-22 07:18:00,3.3,0.0,29.82,WNW,288,0.0,1.0,85,0.00,,,0.00,weatherlink.com 1.10,2013-01-22 12:18:00,
2013-01-22 07:33:00,3.2,0.0,29.83,West,271,2.0,4.0,85,0.00,,,0.00,weatherlink.com 1.10,2013-01-22 12:33:00,
2013-01-22 07:49:00,3.0,-1.0,29.83,NW,314,7.0,9.0,85,0.00,,,0.00,weatherlink.com 1.10,2013-01-22 12:49:00,
2013-01-22 08:04:00,2.7,-1.0,29.83,West,260,2.0,8.0,85,0.00,,,0.00,weatherlink.com 1.10,2013-01-22 13:04:00,
2013-01-22 08:19:00,2.7,-1.0,29.83,West,270,1.0,6.0,85,0.00,,,0.00,weatherlink.com 1.10,2013-01-22 13:19:00,
2013-01-22 08:34:00,3.3,0.0,29.83,SW,223,0.0,3.0,85,0.00,,,0.00,weatherlink.com 1.10,2013-01-22 13:34:00,
2013-01-22 08:49:00,3.9,0.0,29.83,SW,227,0.0,1.0,85,0.00,,,0.00,weatherlink.com 1.10,2013-01-22 13:49:00,
2013-01-22 09:04:00,4.0,0.0,29.83,SW,227,0.0,0.0,84,0.00,,,0.00,weatherlink.com 1.10,2013-01-22 14:04:00,
2013-01-22 09:19:00,7.4,4.0,29.84,NW,311,3.0,7.0,84,0.00,,,0.00,weatherlink.com 1.10,2013-01-22 14:19:00,
2013-01-22 09:35:00,7.0,3.0,29.84,North,5,6.0,6.0,82,0.00,,,0.00,weatherlink.com 1.10,2013-01-22 14:35:00,
2013-01-22 09:50:00,7.6,4.0,29.84,NNE,28,5.0,9.0,83,0.00,,,0.00,weatherlink.com 1.10,2013-01-22 14:50:00,
2013-01-22 10:05:00,6.8,3.0,29.85,NE,34,4.0,10.0,83,0.00,,,0.00,weatherlink.com 1.10,2013-01-22 15:05:00,
2013-01-22 10:20:00,6.0,2.0,29.85,NW,316,3.0,12.0,84,0.00,,,0.00,weatherlink.com 1.10,2013-01-22 15:20:00,
2013-01-22 10:35:00,5.3,2.0,29.85,NNW,348,1.0,11.0,84,0.00,,,0.00,weatherlink.com 1.10,2013-01-22 15:35:00,
2013-01-22 10:50:00,5.2,1.0,29.85,North,350,4.0,10.0,84,0.00,,,0.00,weatherlink.com 1.10,2013-01-22 15:50:00,
2013-01-22 11:05:00,5.4,1.0,29.84,NNE,20,3.0,11.0,83,0.00,,,0.00,weatherlink.com 1.10,2013-01-22 16:05:00,
2013-01-22 11:20:00,6.0,1.0,29.84,North,355,6.0,12.0,81,0.00,,,0.00,weatherlink.com 1.10,2013-01-22 16:20:00,
2013-01-22 11:36:00,6.1,2.0,29.83,North,360,3.0,9.0,81,0.00,,,0.00,weatherlink.com 1.10,2013-01-22 16:36:00,
2013-01-22 11:51:00,6.5,2.0,29.83,North,11,6.0,11.0,81,0.00,,,0.00,weatherlink.com 1.10,2013-01-22 16:51:00,
2013-01-22 12:21:00,6.9,2.0,29.83,NNW,340,7.0,13.0,79,0.00,,,0.00,weatherlink.com 1.10,2013-01-22 17:21:00,
2013-01-22 12:36:00,6.9,1.0,29.84,NNE,32,5.0,12.0,78,0.00,,,0.00,weatherlink.com 1.10,2013-01-22 17:36:00,
2013-01-22 12:51:00,6.0,0.0,29.84,NNE,13,8.0,16.0,76,0.00,,,0.00,weatherlink.com 1.10,2013-01-22 17:51:00,
2013-01-22 13:22:00,6.0,0.0,29.84,North,360,9.0,16.0,77,0.00,,,0.00,weatherlink.com 1.10,2013-01-22 18:22:00,
2013-01-22 13:37:00,5.7,1.0,29.85,North,355,2.0,8.0,80,0.00,,,0.00,weatherlink.com 1.10,2013-01-22 18:37:00,
2013-01-22 13:52:00,5.3,0.0,29.85,North,360,1.0,13.0,80,0.00,,,0.00,weatherlink.com 1.10,2013-01-22 18:52:00,
2013-01-22 14:07:00,4.9,0.0,29.86,NNE,19,6.0,12.0,80,0.00,,,0.00,weatherlink.com 1.10,2013-01-22 19:07:00,
2013-01-22 14:22:00,4.5,0.0,29.86,North,5,7.0,14.0,82,0.00,,,0.00,weatherlink.com 1.10,2013-01-22 19:22:00,
2013-01-22 14:52:00,3.7,-1.0,29.88,North,11,5.0,12.0,80,0.00,,,0.00,weatherlink.com 1.10,2013-01-22 19:52:00,
2013-01-22 15:08:00,3.6,-1.0,29.89,North,360,6.0,13.0,80,0.00,,,0.00,weatherlink.com 1.10,2013-01-22 20:08:00,
2013-01-22 15:23:00,3.5,-1.0,29.89,NNW,345,3.0,9.0,81,0.00,,,0.00,weatherlink.com 1.10,2013-01-22 20:23:00,
2013-01-22 15:38:00,3.0,-2.0,29.90,NW,316,4.0,11.0,80,0.00,,,0.00,weatherlink.com 1.10,2013-01-22 20:38:00,
2013-01-22 15:53:00,2.3,-2.0,29.91,NNW,341,7.0,11.0,81,0.00,,,0.00,weatherlink.com 1.10,2013-01-22 20:53:00,
2013-01-22 16:08:00,1.9,-2.0,29.92,North,355,6.0,10.0,82,0.00,,,0.00,weatherlink.com 1.10,2013-01-22 21:08:00,
2013-01-22 16:23:00,1.8,-2.0,29.92,NNW,348,5.0,6.0,83,0.00,,,0.00,weatherlink.com 1.10,2013-01-22 21:23:00,
2013-01-22 16:38:00,1.5,-3.0,29.93,NNW,340,1.0,13.0,83,0.00,,,0.00,weatherlink.com 1.10,2013-01-22 21:38:00,
2013-01-22 16:53:00,1.2,-3.0,29.93,NNW,335,2.0,14.0,83,0.00,,,0.00,weatherlink.com 1.10,2013-01-22 21:53:00,
2013-01-22 17:09:00,0.8,-3.0,29.94,NNW,344,3.0,9.0,84,0.00,,,0.00,weatherlink.com 1.10,2013-01-22 22:09:00,
2013-01-22 17:24:00,0.4,-4.0,29.94,NNW,343,9.0,21.0,81,0.00,,,0.00,weatherlink.com 1.10,2013-01-22 22:24:00,
2013-01-22 17:39:00,-0.5,-5.0,29.95,NNW,335,5.0,14.0,80,0.00,,,0.00,weatherlink.com 1.10,2013-01-22 22:39:00,
2013-01-22 17:54:00,-1.0,-7.0,29.95,WNW,303,7.0,13.0,77,0.00,,,0.00,weatherlink.com 1.10,2013-01-22 22:54:00,
2013-01-22 18:09:00,-1.4,-8.0,29.95,North,355,2.0,16.0,73,0.00,,,0.00,weatherlink.com 1.10,2013-01-22 23:09:00,
2013-01-22 18:25:00,-1.9,-9.0,29.95,North,9,1.0,13.0,71,0.00,,,0.00,weatherlink.com 1.10,2013-01-22 23:25:00,
2013-01-22 18:40:00,-2.4,-10.0,29.96,North,5,3.0,16.0,71,0.00,,,0.00,weatherlink.com 1.10,2013-01-22 23:40:00,
2013-01-22 18:55:00,-2.8,-10.0,29.96,North,355,8.0,10.0,72,0.00,,,0.00,weatherlink.com 1.10,2013-01-22 23:55:00,
2013-01-22 19:11:00,-3.2,-10.0,29.97,NNW,342,3.0,15.0,73,0.00,,,0.00,weatherlink.com 1.10,2013-01-23 00:11:00,
2013-01-22 19:26:00,-3.6,-10.0,29.97,NNW,328,5.0,8.0,75,0.00,,,0.00,weatherlink.com 1.10,2013-01-23 00:26:00,
2013-01-22 19:41:00,-3.9,-10.0,29.97,NNW,345,4.0,16.0,76,0.00,,,0.00,weatherlink.com 1.10,2013-01-23 00:41:00,
2013-01-22 20:26:00,-4.6,-10.0,29.97,North,11,3.0,18.0,78,0.00,,,0.00,weatherlink.com 1.10,2013-01-23 01:26:00,
2013-01-22 20:41:00,-5.0,-10.0,29.97,North,355,2.0,16.0,77,0.00,,,0.00,weatherlink.com 1.10,2013-01-23 01:41:00,
2013-01-22 20:57:00,-5.5,-11.0,29.97,WNW,294,1.0,14.0,77,0.00,,,0.00,weatherlink.com 1.10,2013-01-23 01:57:00,
2013-01-22 21:12:00,-6.2,-12.0,29.98,North,9,5.0,17.0,76,0.00,,,0.00,weatherlink.com 1.10,2013-01-23 02:12:00,
2013-01-22 21:27:00,-6.6,-12.0,29.98,North,355,3.0,10.0,76,0.00,,,0.00,weatherlink.com 1.10,2013-01-23 02:27:00,
2013-01-22 21:42:00,-7.2,-13.0,29.97,ENE,57,3.0,21.0,77,0.00,,,0.00,weatherlink.com 1.10,2013-01-23 02:42:00,
2013-01-22 22:00:00,-7.5,-13.0,29.98,NNW,343,2.0,16.0,77,0.00,,,0.00,weatherlink.com 1.10,2013-01-23 03:00:00,
2013-01-22 22:13:00,-7.8,-13.0,29.98,West,263,0.0,8.0,78,0.00,,,0.00,weatherlink.com 1.10,2013-01-23 03:13:00,
2013-01-22 22:43:00,-8.4,-13.0,29.98,NNW,342,1.0,11.0,80,0.00,,,0.00,weatherlink.com 1.10,2013-01-23 03:43:00,
2013-01-22 22:58:00,-8.6,-13.0,29.98,North,350,2.0,12.0,80,0.00,,,0.00,weatherlink.com 1.10,2013-01-23 03:58:00,
2013-01-22 23:14:00,-8.8,-13.0,29.99,NNW,348,7.0,15.0,81,0.00,,,0.00,weatherlink.com 1.10,2013-01-23 04:14:00,
2013-01-22 23:29:00,-9.0,-13.0,29.99,North,355,6.0,12.0,81,0.00,,,0.00,weatherlink.com 1.10,2013-01-23 04:29:00,
2013-01-22 23:44:00,-9.0,-13.0,29.99,NNW,342,5.0,10.0,82,0.00,,,0.00,weatherlink.com 1.10,2013-01-23 04:44:00,
2013-01-22 23:59:00,-9.1,-13.0,30.00,NW,326,5.0,11.0,81,0.00,,,0.00,weatherlink.com 1.10,2013-01-23 04:59:00,